Location: Unspecified
(40.7945°N, 0.0000°E)
Time: 01:26:03
(UTC+00:00)

AIST 2D - Pass Details

Date: 25 July 2019
Orbit: 457 x 471 km, 97.2° (Epoch: 24 August)

Event Time Altitude Azimuth Distance (km) Brightness Sun altitude
Rises 23:14:24 0° 4° (N) 2,518 ? -28.5°
Reaches altitude 10° 23:16:32 10° 357° (N) 1,638 ? -28.5°
Enters shadow 23:18:15 25° 341° (NNW) 994 ? -28.6°
